Home   Weather   Dakar   Past weeks

Flag for Senegal Past Weather in Dakar, Senegal — Yesterday and Last 2 Weeks

84 °F

Scattered clouds.

Feels Like: 92 °F
Forecast: 78 / 86 °F
Wind: 13 mph from Northeast

Location: Dakar / Yoff

Current Time: Oct 23, 2016 at 12:14:15 PM

Latest Report: Oct 23, 2016 at 12:00 PM

Visibility: N/A

Pressure: 29.95 "Hg

Humidity: 74%

Dew Point: 75 °F

Location of DakarLocation

Past Weather in Dakar — Graph


Dakar Temperature Yesterday

Maximum temperature yesterday: 86 °F (at 11:00 AM)
Minimum temperature yesterday: 75 °F (at 4:30 AM)
Average temperature yesterday: 81 °F

High & Low Weather Summary for the Past Weeks

High97 °F (Oct 9, 11:30 AM)100% (Oct 10, 1:00 AM)30.04 "Hg (Oct 10, 1:00 AM)
Low75 °F (Oct 15, 4:00 AM)41% (Oct 16, 2:30 PM)29.80 "Hg (Oct 9, 4:00 PM)
Average83 °F79%29.88 "Hg
* Reported Oct 8 11:00 AM — Oct 23 11:00 AM, Dakar, Weather by CustomWeather, © 2016

Note: Actual official high and low records may vary slightly from our data, if they occured in-between our weather recording intervals... More about our weather records


Dakar Weather History for the Previous 24 Hours

Scroll right to see more
Time TempWeatherWind HumidityBarometerVisibility
11:00 AM
Sun, Oct 23
84 °FScattered clouds.14 mph74%29.95 "HgN/A
10:30 AM84 °FScattered clouds.14 mph74%29.95 "HgN/A
10:00 AM84 °FScattered clouds.15 mph74%29.95 "HgN/A
9:30 AM84 °FPassing clouds.13 mph74%29.95 "HgN/A
9:00 AM82 °FPassing clouds.13 mph79%29.95 "HgN/A
8:30 AM82 °FPassing clouds.12 mph79%29.95 "HgN/A
8:00 AM82 °FPassing clouds.9 mph79%29.95 "HgN/A
7:30 AM81 °FPassing clouds.9 mph84%29.95 "HgN/A
7:00 AM81 °FPassing clouds.9 mph79%29.95 "HgN/A
6:30 AM81 °FPassing clouds.9 mph79%29.92 "HgN/A
6:00 AM79 °FClear.8 mph84%29.92 "Hg10 mi
5:30 AM79 °FClear.8 mph84%29.92 "Hg10 mi
5:00 AM79 °FClear.9 mph84%29.89 "Hg10 mi
4:30 AM81 °FClear.10 mph84%29.89 "Hg10 mi
4:00 AM81 °FClear.10 mph84%29.89 "Hg10 mi
3:30 AM81 °FClear.10 mph84%29.89 "Hg10 mi
3:00 AM81 °FClear.9 mph84%29.86 "Hg10 mi
2:30 AM81 °FClear.9 mph84%29.92 "Hg10 mi
2:00 AM79 °FClear.8 mph89%29.92 "Hg10 mi
1:30 AM79 °FClear.8 mph89%29.95 "Hg10 mi
1:00 AM79 °FClear.9 mph89%29.95 "Hg10 mi
12:30 AM81 °FClear.9 mph84%29.95 "Hg10 mi
12:00 AM79 °FClear.8 mph84%29.95 "Hg10 mi
11:30 PM
Sat, Oct 22
79 °FClear.8 mph84%29.95 "Hg10 mi
11:00 PM81 °FClear.8 mph84%29.95 "Hg10 mi
10:30 PM81 °FClear.7 mph84%29.95 "Hg10 mi
10:00 PM81 °FClear.8 mph79%29.95 "Hg10 mi
9:30 PM81 °FClear.7 mph79%29.92 "Hg10 mi
9:00 PM81 °FClear.8 mph79%29.92 "Hg10 mi
8:30 PM81 °FClear.8 mph79%29.92 "Hg10 mi
8:00 PM81 °FClear.9 mph79%29.92 "Hg10 mi
7:30 PM81 °FClear.10 mph79%29.89 "Hg10 mi
7:00 PM81 °FClear.10 mph79%29.89 "Hg10 mi
6:30 PM82 °FSunny.12 mph74%29.89 "Hg10 mi
6:00 PM82 °FSunny.12 mph74%29.89 "Hg10 mi
5:30 PM84 °FSunny.13 mph70%29.89 "Hg10 mi
5:00 PM84 °FSunny.13 mph70%29.89 "Hg10 mi
4:30 PM86 °FSunny.12 mph66%29.89 "Hg10 mi
4:00 PM86 °FSunny.9 mph66%29.89 "Hg10 mi
3:30 PM86 °FSunny.10 mph66%29.89 "Hg10 mi
3:00 PM86 °FSunny.12 mph70%29.89 "Hg10 mi
2:30 PM86 °FSunny.12 mph66%29.92 "Hg10 mi
2:00 PM86 °FSunny.13 mph66%29.92 "Hg10 mi
1:30 PM86 °FSunny.14 mph66%29.92 "Hg10 mi
1:00 PM86 °FPassing clouds.13 mph70%29.92 "HgN/A
12:30 PM86 °FPassing clouds.13 mph70%29.95 "HgN/A
12:00 PM86 °FPassing clouds.12 mph70%29.95 "HgN/A
Weather by CustomWeather, © 2016

See weather overviewHow to use our weather pages